Location: Maiden
(35.5760°N, 81.2120°W)
Time: 03:35:06
(UTC-04:00)

Vanguard 2 - Pass Details

Date: 12 August 2020
Orbit: 553 x 2937 km, 32.9° (Epoch: 20 September)

Event Time Altitude Azimuth Distance (km) Brightness Sun altitude
Rises 18:16:21 0° 208° (SSW) 6,281 12.5 23.2°
Reaches altitude 10° 18:20:56 10° 200° (SSW) 5,491 12.2 22.3°
Maximum altitude 18:35:24 34° 143° (SE) 4,093 11.0 19.4°
Drops below altitude 10° 18:49:25 10° 87° (E) 5,368 11.3 16.5°
Sets 18:53:44 0° 79° (ENE) 6,135 11.5 15.7°
